Location: Bailen
(14.1842°N, 120.7958°E)
Time: 17:45:33
(UTC+00:00)

NOSS 3-4 (C) - Pass Details

Date: 12 January 2026
Orbit: 773 x 1438 km, 63.4° (Epoch: 26 December)

Event Time Altitude Azimuth Distance (km) Brightness Sun altitude
Exits shadow 19:58:10 63° 17° (NNE) 1,472 4.2 -34.4°
Maximum altitude 19:59:25 71° 66° (ENE) 1,413 4.2 -34.1°
Drops below altitude 10° 20:08:09 10° 149° (SSE) 3,523 6.9 -32.1°
Sets 20:11:10 0° 151° (SSE) 4,515 7.6 -31.4°
